"Pseudo-MPEC" for C06QNU2

Created 2019 Feb 13 5:18:29 UT using Find_Orb

Click here for an explanation of pseudo-MPECs

 
 Astrometry: 
     C06QNU2  C2019 02 11.25531 08 42 00.46 +12 42 47.7    ~2B73 19.1 GVNEOCPG96
     C06QNU2  C2019 02 11.26095 08 42 01.82 +12 43 59.2    ~2B73 19.4 GVNEOCPG96
     C06QNU2  C2019 02 11.26657 08 42 03.18 +12 45 10.1    ~2B73 19.4 GVNEOCPG96
     C06QNU2  C2019 02 11.27219 08 42 04.54 +12 46 21.3    ~2B73 19.3 GVNEOCPG96
     C06QNU2  C2019 02 11.37668 08 42 29.66 +13 07 55.3    ~2B9I 19.3 GVNEOCPI52
     C06QNU2  C2019 02 11.37692 08 42 29.70 +13 07 58.5    ~2B9I 19.2 GVNEOCPI52
     C06QNU2  C2019 02 11.37717 08 42 29.76 +13 08 01.1    ~2B9I 19.1 GVNEOCPI52
     C06QNU2  C2019 02 11.37827 08 42 30.03 +13 08 14.8    ~2B9I 19.2 GVNEOCPI52
     C06QNU2  C2019 02 11.76727 08 44 20.35 +14 23 14.2    ~2BL3 19.4 VVNEOCP033
     C06QNU2  C2019 02 11.76833 08 44 20.61 +14 23 26.0    ~2BL3 19.0 VVNEOCP033
     C06QNU2  C2019 02 11.76940 08 44 20.87 +14 23 38.6    ~2BL3 19.5 VVNEOCP033
     C06QNU2  C2019 02 11.77047 08 44 21.11 +14 23 49.2    ~2BL3 19.3 VVNEOCP033
     C06QNU2 KC2019 02 11RqDxAstrometrykpDJPQFLx\V*ma;6NG7ixJ!lpS=o+ceO3;'3A%C95
     C06QNU2  C2019 02 11.81737 08 44 32.07 +14 32 30.6    ~2BL3 19.3 VVNEOCP033
     C06QNU2  C2019 02 11.81863 08 44 32.35 +14 32 44.5    ~2BL3 19.3 VVNEOCP033
     C06QNU2  C2019 02 11.81988 08 44 32.64 +14 32 58.3    ~2BL3 19.3 VVNEOCP033
     C06QNU2 KC2019 02 11ibXjyGGRLHxBUk`%WjlLqnPIL?wwI@9'0mNWE%wwZ9huryee6ENfC95
     C06QNU2 KC2019 02 111E5v8=S7r34om(7Bk-eqCdEcYyH$PVjuEfgcsX[,G*TOuv)f^I7[C95
     C06QNU2 KC2019 02 11KfX;;W[]@T;U;b9ok5EuU]xm?1]rXs?)9QxTc3k]A-9\I,+ouQDQK63
     C06QNU2 KC2019 02 11%1.ynG*FVmYGQ!.D7XPC'LtKWbGUJTjOfy(43[VZ:$1o2U-D`PK2K63
     C06QNU2 KC2019 02 116RB@ruH`v5redacted;ARp60'+C78AwhmcFw,3O^#[wSV9R55*_KK63
     C06QNU2 KC2019 02 11YckL8$2%Sp\hPZA,448##CcN8*_Pbc%Sj+kH=JUg-CqAXU,JX0GAL01
     C06QNU2 pC2019 02 119-Tmw_8yVcTwpQI7o[l!+$eSF$8%/\!IiU@oT?%qM#g$XMaJ(l)HL01
     C06QNU2 KC2019 02 11N/^=?T74c09Z]pH;vZB]_J*hr)=xAK4I5L@T'WBjg[J$,L?(-a@lK88
     C06QNU2 KC2019 02 11kOV%xE+?y2PuV1'B=-y:#?`Cit\wKML\,J'7C[$tVZlg;4^IP^=.L01
     C06QNU2 KC2019 02 11DX:p:tulVplgP^.FLmo#QfeTDclick!w*y/xo#yjxkb/;.vEl*kwL01
     C06QNU2 KC2019 02 11.94229808 45 00.68 +14 55 01.1    ~2BN3 19.3 GVNEOCPJ95
     C06QNU2 KC2019 02 11qWlHalW9aZl+37GBRUrx!i@T*o61VM\3@+NfgMQ43dKZ`$jXk4EeK88
     C06QNU2 KC2019 02 11.94529808 45 01.32 +14 55 33.7    ~2BN3 19.8 GVNEOCPJ95
     C06QNU2 KC2019 02 11.94898008 45 02.10 +14 56 12.2    ~2BN3 19.8 GVNEOCPJ95
     C06QNU2 KC2019 02 12`wXZ(,FxMNOaam3u-k?eG1TlPPvec6VJ34^ot+H3Q=NE*IRuirBT204
     C06QNU2 KC2019 02 12@UDio(8Cg`y8=N7!Riwu;sOub3R']L]p3xVf%V@qMo.N!Q%vmy%h204
     C06QNU2 KC2019 02 12Zn:[oXk57!U.N$pW%H\!o5Z7QM2N#XbKO`D4Q3Shh[G_8L-u(V0b204
     C06QNU2 KC2019 02 128+qgaWePcxV@xwg]6:Devu^n7NM4te@F,[#q1foA\6tZW1JqV5m0K96
     C06QNU2 KC2019 02 12j.K0TXE2)1hereRyRiiLIF^Mrnb?XL%k(9QrV\0h[BrlOKEnKAncK96
     C06QNU2  C2019 02 12.13313 08 45 50.01 +15 28 21.5    ~2C3X 19.4 GVNEOCPI52
     C06QNU2  C2019 02 12.13337 08 45 50.08 +15 28 24.0    ~2C3X 19.1 GVNEOCPI52
     C06QNU2  C2019 02 12.13361 08 45 50.13 +15 28 26.9    ~2C3X 19.2 GVNEOCPI52
     C06QNU2  C2019 02 12.13386 08 45 50.18 +15 28 29.2    ~2C3X 19.3 GVNEOCPI52
     C06QNU2 KC2019 02 12.20039808 46 03.63 +15 39 35.4    ~2C5X 18.9 GVNEOCPV03
     C06QNU2 KC2019 02 12.20424808 46 04.43 +15 40 13.7    ~2C5X 19.3 GVNEOCPV03
     C06QNU2 KC2019 02 126e5rY@D[PZk?hk.qp-i3d2v2Sbvm,22A_k;]EL4n/BeY*Tw=r0m*587
     C06QNU2 KC2019 02 12v\QBQ5w-N;AB%ca^Go\gF2q=Aw')jW?uSq00H=^c^[hv'#l=B3cT587
     C06QNU2 KC2019 02 12LRV#f6K^N4vcWR`^V,Uxs,XR[oGnOsF+SILCt0Lb`5s9O1I[fG/^587
     C06QNU2 KC2019 02 12\f1\qd+CbY-4vHIoaS[0hG1w`reP`!hwgSY_=?\YxDmtlqD-J%q8587
     C06QNU2 KC2019 02 12qnV9EDl%for]cx?CP=6K/-Ip1(AJ.#:)1oK9Ko+*Rn\Lk3i(^Sia595
     C06QNU2 KC2019 02 12sZ4h4nmMsc2Xo[:uLMe.erRLu-otf!w_5e'J3tQ,]dd-yY(K,G4L595
     C06QNU2 KC2019 02 12C9#@R8_YbrSnYk2wR1VZ6=\JiUjAJ=CnVFh._(A!Tuog@'er8u,)595
     C06QNU2 KC2019 02 12WH;Tpr!9Z:uVoOQeqqF6C91OB$rO9pMJriYi;Z\ONW+C`6bWacm*104
     C06QNU2 KC2019 02 12M*U/txh=9yB*0N'Kdj\-*0ccDaT*h8`wG[uiRhk,1O_WA#!$)..n595
     C06QNU2 KC2019 02 12q]xsrsbKb.WM]Mf:oi;MM#[ut`g,?a6_cN2LSN40!q8gfa1'4^+I104
     C06QNU2 KC2019 02 12?'ruexplanationf\IRb#'vg(mYpYt';.?1RY@,yKuFW$y?[o.b6104
     C06QNU2  C2019 02 13.09282 08 49 15.29 +17 53 10.5    ~2D2X 20.5 GVNEOCPI52
     C06QNU2  C2019 02 13.09533 08 49 15.80 +17 53 31.4    ~2D2X 19.8 GVNEOCPI52

Station data:
(033) Karl Schwarzschild Observatory, Tautenburg  (N50.980140 E11.711240)
   Germany. 1.3-m Schmidt.
(104) San Marcello Pistoiese  (N44.063037 E10.804200)  Italy. 0.40-m f/5
   reflector.
(204) Schiaparelli Observatory  (N45.867933 E8.770800)  Italy.  Observer L.
   Buzzi. 0.60-m f/4.64 Newtonian + CCD.
(587) Sormano  (N45.882949 E9.229180)  Italy.  Observers F. Manca, A. Testa.
   Measurer F. Manca. 0.5-m + CCD.
(595) Farra d'Isonzo  (N45.915734 E13.525780)  Italy.  Observers L.
   Bittesini, F. Fabris, E. Pettarin, F. Piani. Measurer E. Pettarin. 0.30-m
   f/4.5 reflector + CCD.
(C95) SATINO Remote Observatory, Haute Provence  (N43.932042 E5.712390)
   France.
(G96) Mt. Lemmon Survey  (N32.442754 W110.788720)  US/Arizona.  Observers B.
   M. Africano, E. J. Christensen, G. A. Farneth, D. C. Fuls, A. R. Gibbs, A.
   D. Grauer, H. Groeller, J. A. Johnson, R. A. Kowalski, S. M. Larson, G. J.
   Leonard, R. L. Seaman, F. C. Shelly. 1.5-m reflector + 10K CCD.
(I52) Steward Observatory, Mt. Lemmon Station  (N32.442547 W110.788920)
   US/Arizona.  Observers B. M. Africano, E. J. Christensen, G. A. Farneth,
   D. C. Fuls, A. R. Gibbs, A. D. Grauer, H. Groeller, J. A. Johnson, R. A.
   Kowalski, S. M. Larson, G. J. Leonard, R. L. Seaman, F. C. Shelly. 1.0-m
   reflector + CCD.
(J95) Great Shefford  (N51.474969 W1.447003)  UK.  Observer P. Birtwhistle.
   0.40-m f/6.0 Schmidt-Cassegrain + CCD.
(K63) G. Pascoli Observatory, Castelvecchio Pascoli  (N44.082410 E10.462000)
   Italy.
(K88) GINOP-KHK, Piszkéstető  (N47.917622 E19.893600)  Hungary.  Observer K.
   Sárneczky. 0.60-m Schmidt + CCD.
(K96) Savelli Observatory  (N39.314406 E16.751190)  Italy.
(L01) Višnjan Observatory, Tičan  (N45.290900 E13.749300)  Croatia.
   Observers K. Korlević, E. Pettarin. Measurer E. Pettarin. 1.0-m f/2.9
   reflector + CCD.
(V03) Big Water  (N37.083379 W111.668600)  US/Utah.  Observer D. Rankin.
   0.30-m reflector + CCD.

Orbital elements:  C06QNU2
   Perihelion 2018 Dec 16.487407 +/- 0.0487 TT = 11:41:52 (JD 2458468.987407)
Epoch 2019 Feb 13.0 TT = JDT 2458527.5   Earth MOID: 0.0346   Ve: 0.0398
M  29.40384938 +/- 0.13             (J2000 ecliptic)          AutoNEOCP
n   0.50252172 +/- 0.00191          Peri.  261.93308 +/- 0.014
a   1.56686947 +/- 0.00395          Node   142.53118 +/- 0.0023
e   0.6068549 +/- 0.00124           Incl.   14.91558 +/- 0.032
P   1.96/716.37d           H 24.2   G  0.15   U  8.5  
q 0.61600703 +/- 0.000381    Q 2.51773191 +/- 0.00832
From 54 observations 2019 Feb. 11-13 (44.2 hr); mean residual 0".34
Residuals in arcseconds: 
190211 G96  .15+  .13-    190211 K63  1.1-  .00     190212 I52  .30+  .08-    
190211 G96  .07+  .02-    190211 K63  .09-  .25-    190212 I52  .29+  .36+    
190211 G96  .11+  .13-    190211 K63  .42-  .13+    190212 I52  .25+  .10+    
190211 G96  .19+  .19+    190211 L01  .02+  .01-    190212 V03  .95-  .49-    
190211 I52  .19+  .12-    190211 L01  .26-  .35+    190212 V03  .54-  .78-    
190211 I52  .08-  .16+    190211 K88  .23-  .25-    190212 587  .49+  .03+    
190211 I52  .09-  .29-    190211 L01  .09-  .33+    190212 587  .40+  .59-    
190211 I52  .04-  .02+    190211 L01  .42-  .20+    190212 587  .21+  .12-    
190211 033  .33+  .20-    190211 J95  .25+  .15-    190212 587  .36+  .11+    
190211 033  .43+  .25-    190211 K88  .12+  .09-    190212 595  .18+  .06+    
190211 033  .50+  .39+    190211 J95  .12+  .55+    190212 595  .10+  .42+    
190211 033  .28+  .96-    190211 J95  .10-  .06-    190212 595  .39+  .22-    
190211 C95  .64-  .29+    190212 204  .15+  .30+    190212 104  .58-  .11+    
190211 033  .39+  .03-    190212 204  .07+  .28+    190212 595  .31+  .23+    
190211 033  .27+  .02-    190212 204  .09+  .27+    190212 104  .39-  .10-    
190211 033  .32+  .01+    190212 K96  .03+  .20-    190212 104  .38-  .24+    
190211 C95  .95-  .27-    190212 K96  .31+  .18-    190213 I52  .33-  .27-    
190211 C95  .11-  .56-    190212 I52  .02+  .13-    190213 I52  .46+  .02-    

Ephemerides (geocentric):
Date (UTC) HH   RA              Dec         delta   r     elong  mag " sig PA
---- -- -- --  -------------   -----------  ------ ------ -----  --- ---- ---
2019 02 13 05  08 49 32.690   +18 09 09.84  .09907 1.0836 165.9 20.1 .101 136
2019 02 13 06  08 49 40.616   +18 14 36.83  .09953 1.0840 165.9 20.1 .100 135
2019 02 13 07  08 49 48.484   +18 20 00.83  .09998 1.0845 165.8 20.1 .099 133
2019 02 13 08  08 49 56.293   +18 25 21.88  .10043 1.0849 165.8 20.1 .098 131
2019 02 13 09  08 50 04.045   +18 30 40.00  .10088 1.0853 165.7 20.1 .097 130
2019 02 13 10  08 50 11.741   +18 35 55.24  .10134 1.0858 165.7 20.1 .096 128
2019 02 13 11  08 50 19.381   +18 41 07.63  .10179 1.0862 165.7 20.2 .096 126
2019 02 13 12  08 50 26.965   +18 46 17.21  .10224 1.0866 165.6 20.2 .095 125
2019 02 13 13  08 50 34.495   +18 51 24.02  .10270 1.0871 165.6 20.2 .094 123
2019 02 13 14  08 50 41.970   +18 56 28.08  .10315 1.0875 165.5 20.2 .093 121
2019 02 13 15  08 50 49.393   +19 01 29.42  .10361 1.0879 165.5 20.2 .093 119
2019 02 13 16  08 50 56.762   +19 06 28.10  .10406 1.0884 165.4 20.2 .092 117
2019 02 13 17  08 51 04.080   +19 11 24.13  .10452 1.0888 165.4 20.2 .092 115
2019 02 13 18  08 51 11.346   +19 16 17.54  .10497 1.0892 165.3 20.2 .091 113
2019 02 13 19  08 51 18.560   +19 21 08.38  .10543 1.0897 165.3 20.2 .091 111
2019 02 13 20  08 51 25.725   +19 25 56.67  .10588 1.0901 165.3 20.3 .091 109
